カタログに戻る

STARLINK-11411

運用中通信VLEO
NORAD 62018·PAYLOAD·🇺🇸 United States

打ち上げ Nov 18, 2024 から Vandenberg Space Force Base

Loading…

次のパス (今後24時間)

TLE

最新Source: CelesTrak SupGP

元期: Sep 15, 2026, 03:40 UTC

1 62018C 24213L   26258.15326389 -.00024554  00000+0 -20219-3 0  2585
2 62018  53.1569 187.2756 0001246  85.6445 237.6689 15.69729389    10

AllMySatでSTARLINK-11411をリアルタイム追跡

Download on the App Store